Location: Eitze
(52.9840°N, 9.6894°E)
Time: 06:39:24
(UTC+00:00)

H-2A R/B - Pass Details

Date: 19 May 2025
Orbit: 492 x 574 km, 98.2° (Epoch: 22 June)

Event Time Altitude Azimuth Distance (km) Brightness Sun altitude
Exits shadow 22:52:56 11° 110° (ESE) 1,747 4.6 -16.8°
Maximum altitude 22:55:46 22° 61° (ENE) 1,210 4.3 -16.9°
Drops below altitude 10° 22:58:48 10° 10° (N) 1,799 6.2 -16.9°
Sets 23:01:13 0° 355° (N) 2,678 7.7 -16.9°
